Showing default

OPS 9346 (IDSCS 24), 3289

Orbit data source: Space-Track

OPS 9346 (IDSCS 24), 3289 is a payload satellite owned by SAMSO (US) in GEO that was launched on Thu, 13 Jun 1968 UTC via a TITAN IIIC launch vehicle from the Air Force Eastern Test Range (AFETR). Payload-class satellites include a variety of spacecraft equipped with specific instruments for various scientific and technological missions. These include communications satellites like Starlink; space stations such as the ISS; scientific satellites like the Hubble; Earth observation satellites from companies like Planet Labs, Umbra, and HawkEye 360; GPS; miniature CubeSats for education and research; and military/defense satellites.

Not visible in the next 10 days
Identifier
3289, 1968-050F
Orbit
GEO
Country
Flag of USUS
Related business
Manufacturer
Philco-Ford
Mission
Non-operational spacecraft
Bus & Motor
IDCSP, Unknown motor
Mass
45 kg wet, 45 kg dry
Launch date (UTC)
1968-06-13 (58 years ago)
Launch vehicle
TITAN IIIC
Launch site
Air Force Eastern Test Range (AFETR)
Object type
Payload
Rocket body
Debris
Shape & HBR
Unknown
Radar Cross Section
Medium (>0.1 m² and <1 m²)

Expand to show TLE details & history
Last TLE update: 18 hours ago

TLE from 18 hours ago
0 OPS 9346 (IDSCS 24)
1 03289U 68050F   26094.96853814 -.00000099  00000-0  00000-0 0  9995
2 03289   6.9312  53.9999 0044400 139.7607  27.4348  1.07287854 49861
Epoch: 2026-04-04T23:14Z
TLE epoch observation values (Epoch: 2026-04-04T23:14:41.695Z)
Latitude
1.50156°
Longitude
39.57475°
Altitude
33,767.56 km
Speed
3.157 km/s
True Right ascension
14h 46m 07s
True Declination
1° 29' 60"
Sunlit
Object was in daylight at epoch
Visualization orbit readout
Latitude
Unknown
Longitude
Unknown
Altitude
Unknown
Speed
Unknown
Apparent Right ascension
Unknown
Apparent Declination
Unknown
Sunlit
N/A
Visualization observer readout
Local Sidereal Time
23:14:11
Azimuth
Unknown
Elevation
Unknown
Doppler factor
Unknown
Orbital elements
Apogee altitude
34,107.774 km
Perigee altitude
33,749.848 km
Semi-major axis
40,306.948 km
Eccentricity
0.00444
Inclination
6.9312°
RAAN
53.9999°
Arg. of periapsis
139.7607°
True anomaly
27.67038°
Mean anomaly
27.4348°
Eccentric anomaly
27.55247°
Mean motion
0.26821 °/min
Orbital period
1,342.24 mins
BSTAR
0
Loading maneuver chart data...
Computing Atmospheric mass density...
Loading historical data...
Loading historical data...
Loading historical data...
Loading historical data...
Loading historical data...
Loading historical data...
Loading historical data...

Documentation

Showing up to 5 results
|